Location: Unspecified
(0.0000°N, 0.0000°E)
Time: 13:44:47
(UTC+00:00)

Courier 1B Rocket - Pass Details

Date: 20 November 2019
Orbit: 920 x 1202 km, 28.2° (Epoch: 08 December)

Event Time Altitude Azimuth Distance (km) Brightness Sun altitude
Rises 19:08:41 0° 326° (NNW) 4,032 8.4 -19.5°
Reaches altitude 10° 19:12:53 10° 347° (NNW) 3,102 7.5 -20.5°
Enters shadow 19:16:40 16° 17° (NNE) 2,701 7.0 -21.4°
